Vertical_Velocity
6 -3 -2 -2 -0 0 0 -0 -1 1 -1 -2 1 3 -0 -2 -3 -2 -7 1 0 2 1 2 1 2 0 1 2 0 -4 -0 -2 -1 -4 1 -1 1 1 -2 1 1 -0 -3 -2
-1 1 -2 2 -4 -1 -0 -0 1 -1 1 -1 -2 -0 4 -3 -2 -7 -2 -0 4 -0 1 -0 0 2 1 1 1 -3 -1 -4 -2 -1 -1 0 -1 -1 -1 -0 1 1 2 5 0
1 -0 1 -0 -1 1 -2 -0 -1 1 -1 1 1 -2 1 5 -3 -3 -7 -1 2 4 0 3 5 2 1 2 0 1 -3 -2 -1 -0 -0 -0 -0 1 -3 -1 -3 -6 -1 0 2
-2 0 -1 1 0 -1 3 -0 -1 -2 2 0 -1 4 -3 0 -4 -2 -5 -1 2 2 6 1 4 3 -0 -0 1 -2 -0 -1 -0 -0 1 -0 -0 0 -0 -3 2 -3 -2 -4 -4
-2 -0 -2 -2 1 -2 -2 2 -0 -0 -1 0 1 -1 4 0 -12 0 -0 -4 -4 3 0 4 2 -1 -1 -1 0 0 -1 1 -2 1 -1 1 -1 -1 -2 1 2 4 7 3 4
4 -0 -1 -2 -2 -1 1 -2 0 -1 -0 2 1 4 2 0 -1 1 4 -1 -3 -2 3 3 -3 -1 -1 -0 -2 -2 -0 -1 0 0 -0 -0 -0 -1 -4 2 1 -0 -2 -0 -1
-0 1 3 2 -1 1 -3 1 1 2 0 -1 4 1 3 -26 1 1 1 4 1 -2 -1 1 2 5 2 1 1 0 -2 1 0 -1 -0 -1 -1 -2 0 -1 1 2 4 3 2
-1 -4 1 2 -1 -0 -1 2 2 2 2 0 1 5 -12 -1 0 -2 2 1 5 -0 -1 1 3 4 0 3 -3 -2 -4 -0 -3 1 -1 -5 -8 -2 1 0 -0 2 3 3 -2
0 2 1 1 4 3 -2 -3 -2 3 2 1 0 4 -12 -1 -2 1 -2 1 5 6 -1 3 2 2 1 -3 -2 -2 -2 1 -4 -1 -1 -3 -4 -2 1 2 1 1 -0 1 3
-5 -4 -3 -1 -3 7 1 3 2 3 4 3 4 2 4 -7 1 -2 1 1 1 4 3 1 2 -1 -0 0 -6 -3 1 1 -2 -4 1 1 -4 -2 -1 2 -4 -1 2 1 1
-1 -4 -5 -1 1 -1 6 1 3 2 5 -17 -11 -2 -0 0 4 1 1 1 4 6 -1 0 -1 -5 -8 -2 -1 -2 -1 -1 -0 -0 -3 -2 -1 -3 -2 3 2 1 1 0 -3
11 2 -3 -6 -2 3 6 -1 -5 2 -6 -1 0 0 3 4 0 4 5 1 1 -1 1 -0 -4 -4 -0 0 0 0 -1 0 -0 1 -1 -0 -5 -3 -0 -3 -6 -4 0 -1 5
-3 4 7 5 5 -1 3 -5 9 4 3 -11 -12 -6 -13 6 -4 -4 -1 -1 -2 2 -0 -4 -7 1 -1 1 2 -0 -2 -0 -3 1 0 -2 -5 1 -2 3 3 3 0 7 -4
-5 -3 8 16 -0 0 -14 2 12 15 3 -13 -1 -14 1 7 -2 3 8 -16 3 -7 -1 -3 -4 -1 1 -1 -4 1 -2 -1 -0 -3 -4 -4 -9 -2 -0 -1 1 0 0 -1 -2
2 6 2 22 -9 2 -5 8 17 12 4 -16 -1 11 2 -11 -5 2 0 16 -3 -2 -4 -18 0 1 1 -4 -2 -5 -2 -1 -1 -1 -2 1 -4 -13 -0 -1 -2 -1 -1 -1 -0
-1 -16 15 0 14 -5 12 5 3 14 -11 -3 -1 -0 -1 3 1 4 2 7 -2 -1 1 -4 0 -2 -5 1 -1 -2 -4 -3 -2 -2 -4 -4 -6 -9 -2 -6 0 1 0 -0 -1
7 4 -3 24 -14 -2 15 12 9 6 -3 -3 -2 1 -1 1 3 -0 0 4 -6 -3 1 0 0 0 -3 -5 -3 -3 -4 -4 -7 -6 -8 -0 -0 -14 -2 -1 -2 -2 -1 -0 2
2 8 6 -8 4 -12 26 17 11 -6 -3 -0 -0 1 -3 -3 1 1 2 4 -0 -2 -1 -4 -2 -2 -1 -6 -11 -2 -6 -9 -6 -3 -3 0 -4 -18 -2 -0 -0 1 1 3 2
7 -2 -13 1 6 3 35 12 -11 -2 -6 -2 0 -1 1 2 -10 -0 -1 -4 -5 -2 -8 -3 -1 -0 -0 -0 -12 -5 1 -4 -5 -1 -5 -5 -8 -6 1 -0 1 2 1 1 1
3 4 -11 1 12 27 13 -6 -2 -2 -2 -1 -3 -5 -1 -1 1 4 0 -9 -3 -4 -1 -2 -5 -0 1 -1 -1 -5 -7 -8 -5 -5 -1 -2 -1 -6 0 0 1 2 0 1 4
4 0 -12 3 17 14 -1 -4 -1 -2 -0 -4 -1 -1 -1 -2 -3 -0 -4 -11 0 2 -1 -2 -10 -3 -0 -1 -4 1 1 -3 -8 -3 -5 -2 -10 -4 -3 -2 -3 -1 -1 -3 -2
2 3 7 -3 8 -0 -1 -3 -0 -2 3 -1 -1 -1 -3 -1 -0 1 -3 -3 -1 -6 -2 -1 -4 -1 -4 -1 0 -1 -3 -4 -7 -6 -1 -3 -12 0 -0 -2 -2 -1 -3 -2 -2
-1 -2 -23 17 1 0 -0 -2 0 1 -1 1 -0 -2 -1 -2 -1 -0 -0 -3 0 -0 -10 -5 -1 -3 -8 -11 -5 0 0 -1 -1 -3 -2 -6 -11 -0 -0 1 1 -3 -2 -1 1
-3 0 6 8 0 -3 -1 -1 1 0 -1 0 -3 -0 -0 1 0 -2 1 -0 0 -1 1 -3 -0 -8 -11 -13 -6 0 1 0 -5 -2 -2 -5 -2 -2 0 -0 1 1 1 0 -2
2 -4 2 0 -2 1 0 -1 1 -0 -0 1 1 -1 -4 0 1 0 1 1 -0 3 -0 -4 -3 -2 1 -0 -0 -2 -1 0 -1 -3 -7 -5 -1 -4 -4 -3 -3 -3 2 1 -1
-0 -1 1 -0 0 2 2 -0 -1 2 0 -1 1 -1 -0 -2 -6 -1 -4 1 -1 -0 -0 -1 0 -1 1 0 0 0 0 0 -0 0 0 -0 -3 -2 0 1 1 -2 -0 -1 -2
1 -1 1 -2 1 -0 -2 -2 -1 -0 -4 -1 -3 1 4 -8 -1 -4 -3 0 -0 -1 -0 -1 -3 -2 -1 -0 -0 -3 -7 -2 -1 0 -8 -4 -13 -0 1 1 -3 -1 -2 -4 -2
Height
1487 1485 1483 1481 1480 1478 1475 1472 1469 1466 1463 1460 1457 1456 1455 1454 1454 1454 1453 1455 1457 1457 1459 1460 1462 1464 1467 1469 1470 1472 1479 1482 1473 1475 1466 1464 1464 1468 1469 1470 1473 1474 1475 1478 1485
1486 1483 1481 1479 1477 1476 1473 1471 1469 1466 1462 1460 1458 1455 1454 1454 1454 1453 1454 1455 1457 1458 1458 1459 1461 1464 1466 1467 1468 1470 1479 1474 1467 1466 1466 1464 1464 1466 1470 1471 1473 1474 1476 1479 1483
1485 1482 1479 1477 1475 1474 1472 1469 1466 1465 1462 1458 1456 1455 1455 1454 1454 1449 1451 1455 1457 1457 1458 1460 1461 1464 1464 1464 1465 1467 1471 1466 1465 1465 1465 1465 1465 1467 1469 1472 1469 1470 1474 1480 1483
1483 1481 1478 1475 1472 1471 1469 1467 1465 1462 1460 1458 1456 1454 1454 1455 1454 1448 1449 1453 1455 1455 1457 1458 1461 1462 1462 1463 1461 1465 1463 1465 1464 1464 1464 1465 1466 1467 1467 1467 1467 1469 1469 1475 1481
1480 1478 1476 1473 1470 1468 1466 1464 1462 1460 1458 1456 1455 1454 1454 1454 1449 1448 1449 1451 1453 1455 1456 1458 1458 1459 1461 1459 1460 1461 1462 1463 1463 1464 1464 1465 1465 1466 1466 1467 1467 1469 1472 1474 1479
1477 1474 1472 1470 1468 1466 1463 1461 1460 1458 1456 1454 1453 1453 1453 1453 1446 1446 1447 1449 1451 1454 1456 1457 1458 1459 1458 1457 1459 1458 1462 1462 1462 1463 1464 1465 1465 1466 1463 1465 1468 1469 1472 1474 1477
1471 1470 1469 1467 1465 1463 1461 1459 1456 1455 1453 1452 1451 1451 1449 1443 1443 1445 1446 1447 1449 1452 1455 1457 1458 1458 1456 1457 1458 1460 1464 1464 1463 1463 1463 1464 1466 1462 1460 1463 1465 1467 1471 1474 1478
1464 1464 1463 1462 1461 1459 1458 1455 1453 1452 1449 1449 1450 1449 1443 1439 1439 1441 1445 1446 1447 1449 1453 1455 1457 1457 1457 1458 1459 1462 1465 1468 1459 1461 1462 1464 1466 1455 1456 1459 1462 1465 1469 1473 1476
1459 1457 1456 1456 1455 1454 1453 1452 1450 1448 1446 1447 1449 1449 1439 1436 1435 1437 1442 1445 1447 1447 1450 1453 1455 1456 1457 1461 1467 1466 1471 1470 1462 1459 1460 1464 1461 1454 1455 1456 1459 1461 1466 1470 1474
1454 1452 1451 1450 1450 1449 1448 1448 1446 1444 1443 1446 1447 1449 1435 1432 1431 1434 1438 1443 1446 1446 1449 1452 1453 1456 1460 1461 1466 1464 1467 1466 1462 1460 1460 1463 1460 1455 1454 1455 1455 1458 1462 1466 1470
1448 1448 1446 1444 1443 1444 1444 1445 1445 1442 1439 1433 1431 1428 1427 1428 1429 1432 1435 1441 1444 1445 1447 1448 1455 1447 1445 1452 1448 1452 1454 1455 1455 1455 1458 1460 1458 1453 1454 1455 1456 1457 1459 1462 1466
1441 1440 1439 1438 1438 1438 1437 1436 1438 1437 1433 1428 1426 1426 1426 1426 1427 1428 1433 1439 1441 1445 1444 1450 1447 1445 1448 1450 1449 1450 1452 1453 1454 1455 1458 1458 1457 1451 1449 1450 1450 1451 1455 1458 1464
1433 1433 1433 1432 1431 1431 1430 1430 1433 1433 1431 1421 1418 1417 1418 1422 1420 1420 1428 1433 1436 1443 1444 1445 1436 1436 1444 1448 1451 1452 1453 1453 1450 1455 1457 1458 1455 1446 1441 1443 1445 1447 1449 1453 1457
1426 1425 1426 1427 1427 1422 1421 1425 1428 1431 1433 1418 1409 1402 1407 1413 1414 1415 1420 1426 1433 1437 1443 1443 1432 1434 1439 1443 1446 1454 1447 1449 1454 1459 1466 1462 1465 1443 1439 1440 1440 1440 1443 1447 1452
1418 1418 1417 1420 1417 1417 1418 1419 1422 1428 1433 1399 1396 1395 1396 1403 1402 1408 1412 1420 1425 1430 1437 1433 1430 1433 1437 1435 1440 1443 1445 1451 1456 1467 1464 1465 1475 1443 1441 1438 1435 1433 1436 1441 1447
1410 1410 1410 1410 1410 1410 1415 1416 1419 1423 1420 1393 1390 1392 1398 1399 1402 1407 1411 1415 1419 1425 1428 1429 1426 1428 1429 1435 1437 1444 1451 1462 1470 1475 1494 1461 1462 1440 1441 1431 1428 1430 1433 1437 1442
1402 1402 1402 1402 1402 1405 1411 1414 1414 1409 1387 1389 1390 1390 1392 1396 1401 1403 1408 1411 1417 1431 1433 1429 1428 1428 1428 1437 1441 1443 1452 1494 1489 1501 1476 1460 1464 1435 1424 1425 1424 1426 1429 1432 1438
1395 1394 1393 1395 1398 1399 1404 1407 1387 1389 1384 1380 1383 1387 1392 1392 1397 1401 1406 1410 1411 1414 1429 1435 1444 1428 1424 1428 1436 1446 1444 1464 1453 1482 1456 1462 1454 1426 1420 1421 1421 1423 1428 1431 1435
1389 1387 1385 1385 1391 1393 1391 1382 1378 1380 1372 1379 1381 1388 1390 1389 1393 1400 1401 1401 1402 1408 1416 1433 1424 1424 1423 1424 1426 1441 1446 1443 1462 1467 1475 1455 1439 1421 1419 1422 1421 1423 1426 1431 1435
1384 1383 1377 1381 1387 1388 1384 1374 1376 1370 1370 1373 1380 1381 1391 1390 1397 1404 1402 1393 1396 1399 1404 1413 1433 1424 1425 1425 1428 1430 1434 1449 1473 1473 1455 1443 1439 1419 1420 1422 1425 1425 1426 1430 1436
1381 1380 1372 1376 1381 1381 1374 1374 1371 1368 1368 1373 1376 1382 1383 1386 1393 1398 1396 1388 1386 1392 1399 1411 1422 1430 1427 1426 1429 1434 1434 1445 1449 1462 1454 1453 1424 1412 1410 1414 1420 1422 1425 1430 1435
1378 1377 1372 1371 1375 1372 1371 1371 1368 1369 1371 1370 1372 1372 1378 1385 1388 1396 1392 1381 1376 1384 1393 1403 1424 1443 1429 1426 1424 1423 1432 1437 1447 1459 1482 1465 1423 1408 1408 1410 1414 1420 1424 1429 1435
1375 1372 1368 1367 1369 1370 1367 1368 1372 1370 1366 1368 1370 1369 1371 1378 1386 1383 1381 1378 1376 1378 1382 1395 1418 1445 1437 1433 1428 1424 1428 1438 1449 1453 1459 1442 1418 1409 1408 1410 1413 1418 1423 1428 1433
1375 1369 1364 1366 1365 1365 1367 1368 1369 1369 1367 1366 1363 1366 1371 1376 1378 1377 1376 1378 1375 1373 1376 1380 1401 1408 1417 1419 1425 1432 1431 1425 1426 1447 1438 1434 1412 1408 1410 1411 1413 1416 1421 1426 1432
1370 1366 1363 1360 1362 1360 1361 1365 1365 1365 1366 1364 1364 1362 1368 1376 1375 1374 1379 1379 1375 1372 1378 1379 1394 1404 1405 1411 1414 1420 1425 1421 1420 1421 1419 1409 1412 1404 1405 1406 1408 1412 1419 1424 1429
1366 1363 1363 1361 1359 1359 1357 1361 1360 1360 1363 1361 1362 1360 1364 1369 1367 1370 1372 1380 1372 1375 1377 1380 1394 1391 1400 1406 1405 1404 1410 1412 1406 1412 1414 1411 1412 1401 1401 1405 1409 1411 1416 1421 1425
1362 1362 1363 1358 1358 1360 1360 1357 1359 1362 1359 1358 1359 1363 1364 1364 1366 1369 1373 1372 1374 1376 1380 1380 1389 1398 1408 1404 1403 1404 1398 1403 1400 1403 1403 1411 1393 1399 1403 1403 1404 1408 1413 1417 1422